Regional Weather Roundup
Issued by NWS Tampa Bay Area, FL

Home | Current Version | Previous Version | Text Only | Print | Product List | Glossary On
Versions: 1 2 3 4 5 6 7 8 9 10 11 12 13 14 15 16 17 18 19 20 21 22 23 24 25 26 27
000
NZUS99 KTBW 031116
RWRTPA
FLORIDA REGIONAL WEATHER ROUNDUP
NATIONAL WEATHER SERVICE TAMPA BAY RUSKIN FL
700 AM EDT TUE AUG 03 2021

NOTE: "FAIR" INDICATES FEW OR NO CLOUDS BELOW 12,000 FEET WITH NO
SIGNIFICANT WEATHER AND/OR OBSTRUCTIONS TO VISIBILITY.



STATION/POSITION



FLZ042-048>051-055-056-060-061-031200-
EXTRA STATIONS

CITY           SKY/WX    TMP DP  RH WIND       PRES   REMARKS
Everglades Cty NOT AVBL
CRYSTAL RIVER    N/A     73  73 100 S3        30.00S
SEBRING        MOCLDY    76  74  92 SW5       30.01R
EGLIN AFB      CLOUDY    73  71  96 N5        29.93S
CANAVERAL      PTCLDY    77  74  88 SW8       29.98S

$$
FLZ001>010-012>015-031200-
PANHANDLE FLORIDA

CITY           SKY/WX    TMP DP  RH WIND       PRES   REMARKS
PENSACOLA      LGT RAIN  75  74  96 N6        29.93R
CRESTVIEW      CLOUDY    74  72  93 CALM      29.95S
VALPARAISO     MOCLDY    73  71  95 N6        29.92R
MARY ESTHER    CLOUDY    73  71  95 N5        29.92R
PANAMA CITY    MOCLDY    74  74 100 NW5       29.91R FOG
TYNDALL AFB    PTCLDY    76  74  93 E3        29.90S
APALACHICOLA   MOCLDY    75  75 100 NE3       29.91R

STATION/POSITION


29.2N   88.2W
28.8N   86.0W
28.5N   84.5W

$$
FLZ011-016>039-031200-
NORTH FLORIDA

CITY           SKY/WX    TMP DP  RH WIND       PRES   REMARKS
MARIANNA       CLOUDY    74  73  97 NE3       29.92R
TALLAHASSEE    MOCLDY    75  74  96 CALM      29.93R
CROSS CITY     DRIZZLE   75  75  98 S7        29.94R
GAINESVILLE    LGT RAIN  74  73  97 S8        29.98R
MAYPORT NAS    CLOUDY    77  77 100 SW10      29.93R
JACKSONVILLE   CLOUDY    74  73  97 SW8       29.93R
JAX NAS        CLOUDY    74  74 100 SW10      29.94R
JAX CRAIG      CLOUDY    76  73  91 SW13G22   29.94R
ST AUGUSTINE   CLOUDY    75  74  96 SW8       29.95F

STATION/POSITION


KEATON BEACH
31.4N   80.9W
ST AUGUSTINE

$$
FLZ040-043>046-052-053-057-058-063-031200-
CENTRAL FLORIDA

CITY           SKY/WX    TMP DP  RH WIND       PRES   REMARKS
OCALA          LGT RAIN  74  74 100 S10       30.00R
LEESBURG       HVY RAIN  75  72  90 W9        30.00S FOG
SANFORD        LGT RAIN  76  74  93 W8        29.99R
ORLANDO EXEC   CLOUDY    78  74  87 W13       30.00R
ORLANDO INTL   CLOUDY    77  74  90 W8        30.00R
KISSIMMEE      CLOUDY   N/A N/A N/A W7        30.02R
WINTER HAVEN   CLOUDY    76  73  91 CALM      30.01R
LAKELAND       PTCLDY    75  73  94 CALM      30.00R
BARTOW         FAIR      73  72  94 SE3       30.01R

$$
FLZ041-047-054-059-064-031200-
EAST CENTRAL FLORIDA

CITY           SKY/WX    TMP DP  RH WIND       PRES   REMARKS
DAYTONA BEACH  LGT RAIN  76  73  91 SW7       29.97R
JFK SPACE CTR  MOCLDY    76  74  92 SW7       29.97S
TITUSVILLE     MOCLDY    79  77  94 SW5       29.99
PATRICK AFB    PTCLDY    78  77  99 SW9       29.98R
MELBOURNE      PTCLDY    76  74  93 SW6       29.99R
VERO BEACH     PTCLDY    76  32  20 S3        30.00R
FT PIERCE      PTCLDY    77  76  96 S3        30.00R
STUART         PTCLDY    79  75  89 CALM      30.02R

STATION/POSITION


28.9N   78.5W

$$
FLZ042-048>051-055-056-060-061-031200-
WEST CENTRAL FLORIDA

CITY           SKY/WX    TMP DP  RH WIND       PRES   REMARKS
BROOKSVILLE    HVY RAIN  73  72  96 W3        30.03S FOG
TAMPA          HVY RAIN  77  73  87 N9        30.03R VSB 1/2
MACDILL AFB    CLOUDY    79  72  78 N8        29.98R THUNDER
ST PETERSBURG  HVY RAIN  77  73  87 NW21G26   30.00R FOG
ST PET-WHITTED CLOUDY    83  76  79 W3        29.98R HX  91
SARASOTA       MOCLDY    83  74  74 W22G29    29.97R THUNDER

STATION/POSITION


CEDAR KEY
28.5N   84.5W
VENICE

$$
FLZ062-065-066-069-070-075>078-031200-
SOUTHWEST FLORIDA AND KEYS

CITY           SKY/WX    TMP DP  RH WIND       PRES   REMARKS
PUNTA GORDA    CLEAR     79  77  94 CALM      30.00R
FT MYERS       CLEAR     80  76  87 CALM      29.98R
SOUTHWEST INTL CLEAR     79  74  84 CALM      30.00R
NAPLES         PTCLDY    84  76  76 SW5       29.99R HX  93
MARATHON       MOCLDY    83  76  79 S7        30.01R HX  91
KEY WEST NAS   PTCLDY    86  75  69 S9        30.01R HX  95
KEY WEST INTL  CLEAR     84  74  71 S9        30.01R HX  91

STATION/POSITION


VENICE
26.0N   85.6W
SAND KEY
SOMBRERO KEY
LONG KEY

$$
FLZ067-068-071>074-031200-
SOUTHEAST FLORIDA

CITY           SKY/WX    TMP DP  RH WIND       PRES   REMARKS
W PALM BEACH   MOCLDY    80  77  90 SW5       30.01R
POMPANO BEACH  MOCLDY    82  75  79 S3        30.00R
FT LAUDER-EXEC PTCLDY    78  76  93 S3        30.00R
FT LAUDERDALE  MOCLDY    82  77  83 VRB5      30.00R HX  91
PEMBROKE PINES PTCLDY    80  76  87 SW3       30.02R
OPA LOCKA      PTCLDY    80  75  84 SW5       30.01R
MIAMI          MOCLDY    82  77  84 S5        30.01R HX  90
WEST KENDALL   MOCLDY    81  76  84 S3        30.01R
HOMESTEAD      CLOUDY    80  76  90 CALM      30.01R

STATION/POSITION


LAKE WORTH
FOWEY ROCKS
SETTLEMENT POINT

$$



USA.gov is the U.S. government's official web portal to all federal, state and local government web resources and services.